STARLINK-1871 (47157 NORAD) Tracking and Keplerian Element Data

This shows tracking and keplerian element data for the satellite.

Feedback or suggestion? Click here.




ElementValue
Catalog47157
NameSTARLINK-1871
Epoch Orbit175
Epoch Day62.91667824
Epoch Year2021
RAAN244.7624
Inclination53.0552
Eccentricity0.0002051
Argument of Perigee85.5264
Mean Anonmoly112.5272
Mean Motion15.06362469
Decay Rate0.00038416
L11 47157U 20088AM 21062.91667824 .00038416 00000-0 25865-2 0 9996
L22 47157 53.0552 244.7624 0002051 85.5264 112.5272 15.06362469 1758

Live tracking and technical data element details for STARLINK-1871 (NORAD 47157). STARLINK-1871 can be tracked NOW for your location showing map with azimuth and elevation plus other details from your city location.

Track the satellite on the map from your city or location and see movement details for azimuth, elevation, latitude, longitude, range, height, and movement on the map or in text.







IsCatalogInMostPopularTable: catalog: 47157, numindb: 40
Update: records affected: 1



GetName: 47157 STARLINK-1871

Hit Count: updated at: Fri, 05 Mar 2021 07:11:17 GMT